Cherry Point, NC

2:01 PM EDT on September 29, 2016 (GMT -0400)
Cherry Point Marine Corps Air Station

Weather History for KNKT - October, 2012

Change the Weather History Date:

Saturday, October 13, 2012

  Actual Average Record
Temperature  
Mean Temperature 60 °F -  
Max Temperature 69 °F 73 °F 84 °F (2014)
Min Temperature 53 °F 53 °F 46 °F (2000)
Degree Days  
Heating Degree Days 4    
Growing Degree Days 10 (Base 50)    
Moisture  
Dew Point 48 °F    
Average Humidity 64    
Maximum Humidity 86    
Minimum Humidity 40    
Precipitation  
Precipitation 0.00 in - - ()
Sea Level Pressure  
Sea Level Pressure 30.37 in    
Wind  
Wind Speed 9 mph ()    
Max Wind Speed 20 mph    
Max Gust Speed 25 mph    
Visibility 10.0 miles    
Events      
Averages and records for this station are not official NWS values.
T = Trace of Precipitation, MM = Missing Value Source: Averaged Metar Reports

Daily Weather History Graph

Daily Weather History Graph

Search for Another Location

Airport or City:

Trip Planner

Search our weather history database for the weather conditions in past years. The results will help you decide how hot, cold, wet, or windy it might be!

Date:

Astronomy

Oct. 13, 2012 Rise Set
Actual Time 7:12 AM EDT 6:34 PM EDT
Civil Twilight 6:46 AM EDT 7:00 PM EDT
Nautical Twilight 6:17 AM EDT 7:29 PM EDT
Astronomical Twilight 5:48 AM EDT 7:58 PM EDT
Moon 5:03 AM EDT (10/13) 5:14 PM EDT (10/13)
Length of Visible Light 12h 13m
Length of Day
11h 22m
Waning Crescent, 5% of the Moon is Illuminated
Oct 13
Waning Crescent
Oct 15
New
Oct 21
First Quarter
Oct 29
Full
Nov 6
Last Quarter

Hourly Weather History & Observations

Time (EDT) Temp. Dew Point Humidity Pressure Visibility Wind Dir Wind Speed Gust Speed Precip Events Conditions
12:54 AM 59.0 °F 48.0 °F 67% 30.31 in 10.0 mi NNE 10.4 mph - N/A   Clear
1:54 AM 59.0 °F 48.9 °F 69% 30.32 in 10.0 mi NNE 13.8 mph - N/A   Clear
2:54 AM 57.0 °F 50.0 °F 77% 30.33 in 10.0 mi NNE 15.0 mph - N/A   Clear
3:54 AM 55.9 °F 46.9 °F 72% 30.33 in 10.0 mi NE 10.4 mph - N/A   Clear
4:54 AM 55.0 °F 46.0 °F 72% 30.34 in 10.0 mi NE 9.2 mph - N/A   Clear
5:54 AM 54.0 °F 46.0 °F 75% 30.35 in 10.0 mi NE 8.1 mph - N/A   Clear
6:54 AM 53.1 °F 46.0 °F 77% 30.38 in 10.0 mi North 6.9 mph - N/A   Clear
7:54 AM 54.0 °F 46.0 °F 75% 30.40 in 10.0 mi North 6.9 mph - N/A   Clear
8:54 AM 57.9 °F 48.0 °F 70% 30.40 in 10.0 mi NNE 10.4 mph - N/A   Clear
9:54 AM 64.0 °F 50.0 °F 60% 30.42 in 10.0 mi ENE 16.1 mph 25.3 mph N/A   Clear
10:54 AM 64.9 °F 50.0 °F 58% 30.42 in 10.0 mi ENE 15.0 mph - N/A   Clear
11:54 AM 66.9 °F 50.0 °F 54% 30.42 in 10.0 mi ENE 19.6 mph 25.3 mph N/A   Clear
12:54 PM 66.9 °F 48.0 °F 51% 30.41 in 10.0 mi East 15.0 mph 24.2 mph N/A   Clear
1:54 PM 68.0 °F 45.0 °F 43% 30.39 in 10.0 mi ENE 13.8 mph - N/A   Clear
2:54 PM 68.0 °F 45.0 °F 43% 30.37 in 10.0 mi ENE 11.5 mph - N/A   Clear
3:54 PM 68.0 °F 43.0 °F 40% 30.36 in 10.0 mi ENE 6.9 mph - N/A   Clear
4:54 PM 68.0 °F 46.0 °F 45% 30.35 in 10.0 mi ENE 8.1 mph - N/A   Clear
5:54 PM 66.0 °F 46.9 °F 50% 30.36 in 10.0 mi NE 8.1 mph - N/A   Clear
6:54 PM 62.1 °F 48.0 °F 60% 30.36 in 10.0 mi East 4.6 mph - N/A   Clear
7:54 PM 57.0 °F 48.9 °F 74% 30.36 in 10.0 mi Calm Calm - N/A   Clear
8:54 PM 55.0 °F 48.9 °F 80% 30.37 in 10.0 mi Calm Calm - N/A   Clear
9:54 PM 55.0 °F 48.0 °F 77% 30.35 in 10.0 mi ESE 3.5 mph - N/A   Clear
10:54 PM 57.0 °F 48.0 °F 72% 30.35 in 10.0 mi Calm Calm - N/A   Clear
11:54 PM 55.0 °F 51.1 °F 86% 30.34 in 10.0 mi Calm Calm - N/A   Clear